Location: Unspecified
(0.0000°N, 0.0000°E)
Time: 02:55:08
(UTC+01:00)

ADEOS II - Visible Passes

Search period start: 28 February 2015 00:00
Search period end: 10 March 2015 00:00
Orbit: 801 x 802 km, 98.3° (Epoch: 26 February)

Date Brightness Start Highest point End Pass type
(mag) Time Alt. Az. Time Alt. Az. Time Alt. Az.
28 Feb 4.3 05:32:35 10° NE 05:36:45 25° E 05:41:05 10° SSE visible
01 Mar 5.3 05:08:56 10° E 05:10:35 12° E 05:12:40 10° SE visible
01 Mar 2.5 06:45:20 10° N 06:50:16 41° WNW 06:55:11 10° SSW visible
02 Mar 2.1 06:18:55 10° N 06:24:10 86° WNW 06:29:27 10° SSW visible
03 Mar 3.2 05:53:06 10° NNE 05:58:05 46° ESE 06:03:07 10° S visible
04 Mar 4.5 05:28:02 10° NE 05:31:57 22° E 05:36:04 10° SSE visible
05 Mar 5.4 05:05:17 10° E 05:05:47 10° E 05:06:45 10° ESE visible
05 Mar 2.3 06:40:27 10° N 06:45:28 47° WNW 06:50:30 10° SSW visible
06 Mar 2.2 06:14:08 10° NNE 06:19:23 85° E 06:24:40 10° S visible
07 Mar 3.5 05:48:26 10° NNE 05:53:18 40° ESE 05:58:14 10° S visible
08 Mar 4.7 05:23:31 10° ENE 05:27:09 20° E 05:31:01 10° SSE visible
09 Mar 2.2 06:35:35 10° N 06:40:41 53° WNW 06:45:47 10° SSW visible
